Torna al catalogo

CZ-6A DEB

AttivoPO
NORAD 61133·DEBRIS·🇨🇳 China

Lanciato Aug 6, 2024 da Taiyuan Satellite Launch Center

Loading…

Prossimi Passaggi (prossime 24 ore)

TLE

AggiornatoSource: Space-Track

Epoca: Sep 14, 2026, 17:01 UTC

1 61133U 24140QB  26257.70968114  .00001475  00000-0  31450-3 0  9996
2 61133  88.9469 254.7840 0074098 297.1828  62.1843 14.56729855109449

Traccia CZ-6A DEB in tempo reale con AllMySat

Download on the App Store